Flag for Canada Weather past 2 weeks in Edmonton, Alberta, Canada

Now
5 °F

Overcast.


Feels Like: -2 °F
Forecast: -4 / 10 °F
Wind: 3 mph from Southwest

Location: Edmonton Municipal

Current Time: Jan 31, 2015 at 11:10:00 PM

Latest Report: Jan 31, 2015 at 10:00 PM


Visibility: 9 mi

Pressure: 30.56 "Hg

Humidity: 78%

Dew point: 0 °F

Location of EdmontonLocation

Historic Weather in Edmonton — Graph

°F

Edmonton temperature yesterday

Maximum temperature yesterday: 25 °F (at 12:00 AM)
Minimum temperature yesterday: 7 °F (at 11:55 PM)
Average temperature yesterday: 17 °F

Past Weeks' High & Low Weather Summary

 TemperatureHumidityPressure
High50 °F (Jan 22, 3:00 PM)100% (Jan 27, 5:00 AM)30.69 "Hg (Jan 27, 5:00 AM)
Low1 °F (Jan 31, 6:02 AM)43% (Jan 22, 3:00 PM)29.54 "Hg (Jan 18, 1:00 PM)
Average30 °F72%30.04 "Hg
* Reported Jan 16 10:00 PM — Jan 31 10:00 PM, Edmonton, Weather by CustomWeather, © 2014

Note: Actual official high and low records may vary slightly from our data, if they occured in-between our weather recording intervals... More about our weather records

Advertising

Edmonton weather history for previous 24 hours

 ConditionsComfort  
Time TempWeatherWind HumidityBarometerVisibility
10:00 PM
Jan 31
5 °FOvercast.3 mph78%30.56 "Hg9 mi
9:01 PM7 °FLight snow. Overcast.2 mph78%30.41 "Hg2 mi
9:00 PM7 °FLight snow. Overcast.2 mph78%30.58 "Hg3 mi
8:58 PM7 °FLight snow. Overcast.3 mph78%30.41 "Hg3 mi
8:00 PM7 °FOvercast.5 mph72%30.59 "Hg7 mi
7:00 PM7 °FOvercast.6 mph72%30.60 "Hg9 mi
6:00 PM7 °FOvercast.7 mph72%30.61 "Hg9 mi
5:00 PM9 °FMostly cloudy.2 mph66%30.62 "Hg9 mi
4:00 PM9 °FMore clouds than sun.3 mph66%30.61 "Hg9 mi
3:00 PM7 °FOvercast.3 mph72%30.63 "Hg9 mi
2:00 PM7 °FOvercast.2 mph72%30.65 "Hg6 mi
1:00 PM7 °FPartly sunny.5 mph72%30.66 "Hg9 mi
12:00 PM5 °FOvercast.No wind72%30.67 "Hg9 mi
11:00 AM3 °FOvercast.2 mph78%30.69 "Hg4 mi
10:00 AM1 °FMostly cloudy.2 mph78%30.69 "Hg6 mi
9:00 AM1 °FOvercast.3 mph78%30.69 "Hg9 mi
8:00 AM1 °FPassing clouds.3 mph78%30.69 "Hg9 mi
7:00 AM1 °FLight snow. Overcast.5 mph78%30.69 "Hg4 mi
6:02 AM1 °FOvercast.6 mph78%30.52 "Hg5 mi
5:00 AM3 °FOvercast.7 mph78%30.68 "Hg3 mi
4:53 AM3 °FOvercast.8 mph78%30.51 "Hg2 mi
4:00 AM3 °FLight snow. Overcast.8 mph78%30.67 "Hg3 mi
3:49 AM3 °FLight snow. Overcast.7 mph78%30.51 "Hg3 mi
3:00 AM3 °FOvercast.14 mph78%30.66 "Hg3 mi
2:00 AM5 °FLight snow. Overcast.9 mph78%30.63 "Hg3 mi
1:48 AM5 °FLight snow. Overcast.9 mph78%30.48 "Hg3 mi
1:00 AM7 °FLight snow. Overcast.12 mph78%30.61 "Hg2 mi
12:00 AM7 °FLight snow. Overcast.13 mph78%30.59 "Hg4 mi
11:55 PM
Jan 30
7 °FLight snow. Overcast.13 mph78%30.43 "Hg7 mi
11:00 PM9 °FLight snow. Overcast.10 mph78%30.56 "Hg1 mi
Weather by CustomWeather, © 2014

See weather overviewHow to use our weather pages